Погода в Пафосе

Кипр     34°46′28″N   32°25′22″E
темп.,
°C
ветер,
м/с
пор.,
м/с
влажн.,
%
обл.,
%
осадки,
мм/ч
давл.,
гПа
погр.,
м
24 сентября, пт
пт2400:00+23з79597 0.0 1007771
03:00+22зсз44580 0.0 1007528
06:00+21в33662 0.0 1008214
09:00+23юв44555 1.3 1010847
12:00+24юз424739 0.4 10111336
15:00+24з54509 0.5 10111299
18:00+23зсз44550 0.0 1012702
21:00+21ссз34560 0.0 1014327
25 сентября, сб
сб2500:00+21ссз34580 0.0 1015324
03:00+20с44580 0.0 1015222
06:00+20с34610 0.0 1015168
09:00+22с12560 0.0 1017436
12:00+25зюз42490 0.0 1017969
15:00+25з65550 0.0 1016854
18:00+24сз66570 0.0 1016664
21:00+22ссз45660 0.0 1017342
26 сентября, вс
вс2600:00+22с33610 0.0 1017129
03:00+22ссв22460 0.0 101665
06:00+21всв22410 0.0 101674
09:00+24зсз00350 0.0 1016206
12:00+26зюз43460 0.0 1016696
15:00+26з54480 0.0 1015589
18:00+26зсз55500 0.0 1013464
21:00+24ссз33530 0.0 1014153
27 сентября, пн
пн2700:00+24с33490 0.0 101393
03:00+23с44510 0.0 1012113
06:00+22с34510 0.0 1011100
09:00+26ссз33410 0.0 1012336
12:00+27з54470 0.0 1011645
15:00+26з77550 0.0 1010651
18:00+25зсз56620 0.0 1010610
21:00+23сз45710 0.0 1010313
28 сентября, вт
вт2800:00+23сз44770 0.0 1010282
03:00+22сз44820 0.0 1010256
06:00+22сз33840 0.0 1009217
09:00+24з22720 0.0 1010454
12:00+26зюз33630 0.0 1011575
15:00+26зюз44630 0.0 1010583
18:00+25з33710 0.0 1010497
21:00+23зсз22810 0.0 1011195